Weather History for Key West, FL

Change the Weather History Date:

Saturday, March 2, 2013

  Actual Average Record
Temperature  
Mean Temperature 63 °F 72 °F  
Max Temperature 68 °F 77 °F 85 °F (1991)
Min Temperature 58 °F 67 °F 48 °F (1890)
Degree Days  
Heating Degree Days 2 0  
Month to date heating degree days 2 0  
Since 1 July heating degree days 14 66  
Cooling Degree Days 0 8  
Month to date cooling degree days 3 15  
Year to date cooling degree days 537 363  
Growing Degree Days 14 (Base 50)    
Moisture  
Dew Point 52 °F    
Average Humidity 66    
Maximum Humidity 73    
Minimum Humidity 58    
Precipitation  
Precipitation T in 0.07 in 1.10 in (1987)
Month to date precipitation 0.02 0.14  
Year to date precipitation 1.56 3.67  
Snow  
Snow 0.00 in - - ()
Month to date snowfall 0.0  
Since 1 July snowfall 0.0  
Snow Depth 0.00 in    
Sea Level Pressure  
Sea Level Pressure 30.02 in    
Wind  
Wind Speed 12 mph (NNW)    
Max Wind Speed 22 mph    
Max Gust Speed 30 mph    
Visibility 10 miles    
Events      
T = Trace of Precipitation, MM = Missing Value Source: NWS Daily Summary

Daily Weather History Graph

Daily Weather History Graph

Search for Another Location

Airport:

Trip Planner

Search our weather history database for the weather conditions in past years. The results will help you decide how hot, cold, wet, or windy it might be!

Date:

Astronomy

Mar. 02, 2013 Rise Set
Actual Time 6:48 AM EST 6:30 PM EST
Civil Twilight 6:25 AM EST 6:52 PM EST
Nautical Twilight 5:59 AM EST 7:19 PM EST
Astronomical Twilight 5:32 AM EST 7:45 PM EST
Moon 11:28 PM EST (3/2) 9:52 AM EST (3/2)
Length of Visible Light 12h 27m
Length of Day
11h 41m
Waning Gibbous, 74% of the Moon is Illuminated
Mar 2
Waning Gibbous
Mar 4
Last Quarter
Mar 11
New
Mar 19
First Quarter
Mar 27
Full

Hourly Weather History & Observations

Time (EST) Temp. Dew Point Humidity Pressure Visibility Wind Dir Wind Speed Gust Speed Precip Events Conditions
12:53 AM 64.9 °F 55.0 °F 70% 30.00 in 10.0 mi North 10.4 mph 19.6 mph 0.00 in   Overcast
1:53 AM 64.9 °F 54.0 °F 68% 29.99 in 10.0 mi North 11.5 mph - 0.00 in   Overcast
2:53 AM 64.9 °F 55.0 °F 70% 29.99 in 10.0 mi North 12.7 mph 19.6 mph N/A   Overcast
3:30 AM 64.4 °F 55.4 °F 73% 29.98 in 10.0 mi North 15.0 mph 27.6 mph N/A   Overcast
3:39 AM 64.4 °F 55.4 °F 73% 29.99 in 10.0 mi North 13.8 mph 21.9 mph N/A   Overcast
3:49 AM 64.4 °F 53.6 °F 68% 29.99 in 10.0 mi North 13.8 mph 24.2 mph N/A   Overcast
3:53 AM 64.0 °F 54.0 °F 70% 29.99 in 10.0 mi North 17.3 mph 23.0 mph N/A   Overcast
4:53 AM 64.0 °F 53.1 °F 67% 29.99 in 10.0 mi North 11.5 mph 20.7 mph N/A   Overcast
5:53 AM 64.4 °F 53.6 °F 68% 30.00 in 10.0 mi North 15.0 mph 26.5 mph N/A   Overcast
6:53 AM 64.4 °F 51.8 °F 64% 30.01 in 10.0 mi North 15.0 mph 26.5 mph N/A   Overcast
7:53 AM 64.0 °F 50.0 °F 60% 30.03 in 10.0 mi NNW 19.6 mph 27.6 mph N/A   Overcast
8:53 AM 64.0 °F 50.0 °F 60% 30.04 in 10.0 mi NNW 16.1 mph 24.2 mph N/A   Overcast
9:53 AM 64.4 °F 50.0 °F 59% 30.05 in 10.0 mi NNW 10.4 mph - N/A   Overcast
10:53 AM 64.9 °F 53.1 °F 65% 30.05 in 10.0 mi NNE 9.2 mph 17.3 mph N/A   Overcast
11:53 AM 64.9 °F 52.0 °F 63% 30.05 in 10.0 mi North 10.4 mph - N/A   Overcast
12:53 PM 66.0 °F 52.0 °F 60% 30.04 in 10.0 mi North 8.1 mph - N/A   Overcast
1:53 PM 66.9 °F 51.1 °F 57% 30.01 in 10.0 mi NNW 9.2 mph - N/A   Partly Cloudy
2:53 PM 66.9 °F 52.0 °F 59% 30.00 in 10.0 mi NW 15.0 mph - N/A   Scattered Clouds
3:53 PM 66.0 °F 51.1 °F 59% 30.00 in 10.0 mi NNW 18.4 mph 29.9 mph N/A   Mostly Cloudy
4:53 PM 64.9 °F 50.0 °F 58% 30.01 in 10.0 mi NNW 17.3 mph 26.5 mph N/A   Mostly Cloudy
5:53 PM 63.0 °F 48.9 °F 60% 30.02 in 10.0 mi North 11.5 mph 19.6 mph N/A   Overcast
6:53 PM 63.0 °F 48.0 °F 58% 30.03 in 10.0 mi North 12.7 mph - N/A   Partly Cloudy
7:53 PM 62.6 °F 48.2 °F 59% 30.05 in 10.0 mi North 8.1 mph - N/A   Scattered Clouds
8:53 PM 60.1 °F 50.0 °F 69% 30.08 in 10.0 mi NNW 11.5 mph - 0.00 in   Overcast
9:53 PM 61.0 °F 50.0 °F 67% 30.07 in 10.0 mi NNW 5.8 mph - N/A   Overcast
10:53 PM 60.1 °F 51.1 °F 72% 30.06 in 10.0 mi Calm Calm - N/A   Clear
11:53 PM 57.9 °F 52.0 °F 81% 30.06 in 10.0 mi Calm Calm - N/A   Scattered Clouds